Location: Codford Saint Peter
(51.1597°N, 2.0531°W)
Time: 03:35:49
(UTC+00:00)

Cosmos 1025 Rocket - Pass Details

Date: 18 September 2020
Orbit: 595 x 617 km, 82.5° (Epoch: 19 October)

Event Time Altitude Azimuth Distance (km) Brightness Sun altitude
Rises 18:44:35 0° 357° (N) 2,884 6.7 -5.5°
Reaches altitude 10° 18:47:05 10° 9° (N) 1,979 5.7 -5.9°
Maximum altitude 18:50:51 28° 69° (ENE) 1,173 4.0 -6.5°
Drops below altitude 10° 18:54:37 10° 128° (SE) 1,975 5.1 -7.0°
Enters shadow 18:56:10 - 137° (SE) 2,525 5.7 -7.3°
